This is the latest recevied weather packets stored in our database for station/object N8TWM-13. If no packets are shown the sender has not sent any weather packets the latest 10 day(s).
| Time | Temp. | Humidity | Pressure | Rain* | Wind** | Luminosity | Snow |
|---|---|---|---|---|---|---|---|
| 1787781251 | 26.11° C | 60% | 1015.5 hPa | 0 mm | - | 213 W/m² | - |
| 1787780948 | 26.67° C | 60% | 1015.4 hPa | 0 mm | - | 223 W/m² | - |
| 1787780643 | 26.11° C | 61% | 1015.4 hPa | 0 mm | - | 246 W/m² | - |
| 1787780338 | 26.11° C | 59% | 1015.6 hPa | 0 mm | - | 271 W/m² | - |
| 1787780035 | 26.11° C | 60% | 1015.4 hPa | 0 mm | - | 273 W/m² | - |
| 1787779730 | 26.11° C | 60% | 1015.5 hPa | 0 mm | - | 304 W/m² | - |
| 1787779429 | 26.11° C | 59% | 1015.4 hPa | 0 mm | - | 313 W/m² | - |
| 1787779124 | 26.67° C | 59% | 1015.3 hPa | 0 mm | - | 330 W/m² | - |
| 1787778818 | 27.22° C | 58% | 1015 hPa | 0 mm | - | 332 W/m² | - |
| 1787778514 | 26.67° C | 59% | 1014.8 hPa | 0 mm | - | 346 W/m² | - |
| 1787778210 | 26.67° C | 60% | 1014.8 hPa | 0 mm | - | 354 W/m² | - |
| 1787777904 | 26.67° C | 58% | 1014.6 hPa | 0 mm | - | 377 W/m² | - |
| 1787777600 | 26.67° C | 59% | 1014.6 hPa | 0 mm | - | 396 W/m² | - |
| 1787777295 | 26.67° C | 56% | 1014.8 hPa | 0 mm | - | 402 W/m² | - |
| 1787776995 | 26.11° C | 60% | 1014.8 hPa | 0 mm | - | 406 W/m² | - |
| 1787776694 | 26.11° C | 59% | 1014.8 hPa | 0 mm | - | 425 W/m² | - |
| 1787776393 | 26.67° C | 58% | 1015.1 hPa | 0 mm | - | 429 W/m² | - |
| 1787776091 | 26.11° C | 58% | 1015.3 hPa | 0 mm | - | 466 W/m² | - |
| 1787775786 | 26.67° C | 57% | 1015.2 hPa | 0 mm | - | 479 W/m² | - |
| 1787775485 | 26.67° C | 58% | 1015.3 hPa | 0 mm | - | 409 W/m² | - |
| 1787775183 | 26.11° C | 61% | 1015.5 hPa | 0 mm | - | 404 W/m² | - |
| 1787774878 | 26.11° C | 60% | 1015.4 hPa | 0 mm | - | 426 W/m² | - |
| 1787774577 | 26.11° C | 60% | 1015.6 hPa | 0 mm | - | 512 W/m² | - |
| 1787774277 | 25.56° C | 60% | 1015.6 hPa | 0 mm | - | 555 W/m² | - |
| 1787773976 | 25.56° C | 61% | 1015.7 hPa | 0 mm | - | 315 W/m² | - |
* Rain latest hour (hover to see other rain measurements)
** Current wind speed in m/s (hover to see current wind gust speed)